Starlink 34064

operational
NORAD ID: 64114 Int'l Des: 2025-110 Owner: SPXS Country: US Constellation: starlink
LEOCIRCULAR

Über Starlink 34064

Beschreibung wird geladen...

Live-Position

3D-Globus wird geladen...

Nächste Überflüge

Höhenverlauf

Altitude vs Time

uPlot chart will show altitude changes over time

Zweizeiliger Elementsatz

1 64114U 25110U 26095.48287355 .00038154 00000-0 12927-2 0 9993
2 64114 53.1575 262.3765 0000446 57.0342 303.0702 15.30226944 49981
Epoch: 5. Apr. 2026 • Age: 6 hours

Aktueller Status

Höhe 480.6 km
Geschwindigkeit 7.63 km/s
Subsatellitenpunkt -20.14°S, 145.05°E
Startdatum 23. Mai 2025
Alter 0.8 years
Typ internet

Technische Details

Klassifizierung Payload
Masse 575.00 kg
Trockenmasse 530.00 kg
Gesamtmasse 575.00 kg
Länge 0.30 m
Durchmesser 4.10 m
Spannweite 29.00 m
Form Box + pan
Hersteller SPXS
Bus-Typ Starlink V2MO
Phasenstatus In Orbit
Besitzer/Staat SPXS/US

Große Konstellationen

Loading constellations...